Precipitable_Water
0.68 0.65 0.66 0.61 0.63 0.63 0.61 0.60 0.58 0.59 0.61 0.61 0.63 0.62 0.54 0.54 0.53 0.49 0.35 0.40 0.40 0.43 0.42 0.37 0.36 0.33 0.31 0.22 0.22 0.23 0.16 0.13 0.13 0.13 0.14 0.18 0.17 0.18 0.25 0.25 0.28 0.37 0.41 0.46 0.71
0.71 0.70 0.68 0.65 0.65 0.64 0.63 0.61 0.60 0.60 0.59 0.61 0.64 0.59 0.56 0.61 0.49 0.37 0.43 0.46 0.46 0.42 0.33 0.31 0.28 0.28 0.23 0.22 0.22 0.17 0.14 0.14 0.15 0.14 0.13 0.15 0.14 0.15 0.16 0.20 0.25 0.30 0.39 0.50 0.63
0.73 0.69 0.69 0.70 0.69 0.66 0.64 0.61 0.58 0.58 0.61 0.63 0.62 0.58 0.56 0.61 0.34 0.34 0.45 0.46 0.49 0.44 0.35 0.33 0.32 0.29 0.22 0.23 0.20 0.17 0.13 0.14 0.14 0.14 0.15 0.14 0.15 0.17 0.15 0.14 0.18 0.18 0.32 0.49 0.59
0.72 0.73 0.72 0.72 0.69 0.64 0.58 0.56 0.56 0.58 0.61 0.62 0.60 0.57 0.54 0.43 0.20 0.39 0.45 0.45 0.48 0.44 0.36 0.31 0.29 0.23 0.19 0.15 0.17 0.13 0.17 0.18 0.17 0.14 0.15 0.15 0.18 0.17 0.21 0.16 0.24 0.30 0.43 0.50 0.57
0.74 0.74 0.74 0.68 0.59 0.56 0.56 0.57 0.57 0.61 0.61 0.60 0.59 0.58 0.45 0.30 0.31 0.44 0.44 0.42 0.43 0.40 0.30 0.24 0.21 0.20 0.16 0.17 0.18 0.17 0.22 0.24 0.25 0.24 0.23 0.22 0.20 0.23 0.24 0.24 0.26 0.36 0.46 0.50 0.55
0.74 0.70 0.64 0.57 0.57 0.56 0.58 0.57 0.60 0.61 0.61 0.62 0.60 0.59 0.35 0.23 0.44 0.44 0.42 0.38 0.37 0.37 0.33 0.28 0.22 0.22 0.19 0.19 0.18 0.22 0.24 0.26 0.28 0.27 0.27 0.23 0.24 0.27 0.26 0.30 0.27 0.31 0.39 0.48 0.53
0.65 0.58 0.57 0.56 0.58 0.60 0.60 0.61 0.61 0.61 0.62 0.63 0.61 0.52 0.32 0.31 0.44 0.42 0.36 0.36 0.37 0.37 0.32 0.33 0.31 0.25 0.23 0.20 0.28 0.26 0.21 0.25 0.27 0.29 0.27 0.28 0.24 0.23 0.28 0.31 0.30 0.30 0.37 0.47 0.54
0.59 0.59 0.59 0.59 0.61 0.61 0.61 0.59 0.60 0.62 0.61 0.60 0.60 0.45 0.28 0.43 0.44 0.36 0.32 0.32 0.37 0.39 0.37 0.40 0.37 0.30 0.27 0.29 0.24 0.22 0.21 0.17 0.27 0.29 0.32 0.28 0.20 0.28 0.30 0.28 0.31 0.32 0.31 0.43 0.54
0.61 0.59 0.60 0.62 0.62 0.59 0.59 0.58 0.61 0.60 0.61 0.58 0.46 0.34 0.23 0.39 0.31 0.32 0.30 0.28 0.33 0.38 0.40 0.39 0.31 0.23 0.23 0.22 0.18 0.18 0.12 0.16 0.21 0.30 0.30 0.29 0.24 0.30 0.34 0.33 0.30 0.32 0.31 0.36 0.47
0.60 0.61 0.62 0.62 0.60 0.58 0.58 0.60 0.60 0.58 0.55 0.51 0.41 0.25 0.27 0.24 0.27 0.25 0.29 0.33 0.30 0.30 0.29 0.29 0.25 0.21 0.22 0.16 0.10 0.14 0.15 0.18 0.17 0.22 0.27 0.25 0.24 0.28 0.28 0.30 0.31 0.30 0.30 0.34 0.42
0.62 0.61 0.62 0.65 0.64 0.61 0.58 0.54 0.35 0.31 0.35 0.28 0.24 0.21 0.24 0.28 0.29 0.21 0.28 0.27 0.27 0.24 0.19 0.24 0.19 0.18 0.21 0.21 0.20 0.20 0.19 0.18 0.20 0.25 0.23 0.23 0.25 0.25 0.29 0.30 0.30 0.30 0.30 0.33 0.39
0.60 0.60 0.64 0.65 0.67 0.66 0.60 0.40 0.42 0.41 0.24 0.29 0.24 0.25 0.29 0.30 0.20 0.22 0.28 0.20 0.21 0.16 0.20 0.19 0.16 0.22 0.25 0.22 0.21 0.21 0.19 0.18 0.22 0.26 0.25 0.26 0.24 0.27 0.29 0.31 0.33 0.33 0.34 0.37 0.39
0.56 0.57 0.60 0.62 0.63 0.59 0.47 0.51 0.66 0.53 0.23 0.26 0.29 0.26 0.27 0.31 0.24 0.24 0.27 0.25 0.20 0.19 0.18 0.16 0.19 0.25 0.24 0.24 0.22 0.23 0.19 0.20 0.20 0.25 0.28 0.27 0.24 0.27 0.30 0.33 0.36 0.38 0.39 0.40 0.41
0.54 0.54 0.58 0.60 0.48 0.49 0.42 0.58 0.67 0.52 0.14 0.18 0.23 0.28 0.27 0.27 0.23 0.38 0.35 0.29 0.24 0.21 0.23 0.21 0.26 0.26 0.25 0.24 0.26 0.18 0.27 0.26 0.24 0.22 0.17 0.30 0.17 0.26 0.29 0.30 0.35 0.38 0.40 0.42 0.44
0.54 0.54 0.59 0.56 0.45 0.40 0.47 0.59 0.69 0.54 0.06 0.24 0.26 0.37 0.32 0.23 0.26 0.31 0.42 0.33 0.22 0.23 0.25 0.22 0.27 0.28 0.26 0.28 0.32 0.25 0.31 0.27 0.26 0.23 0.24 0.26 0.20 0.25 0.32 0.30 0.33 0.38 0.40 0.44 0.47
0.54 0.53 0.58 0.55 0.53 0.60 0.62 0.62 0.54 0.17 0.09 0.22 0.29 0.26 0.26 0.30 0.32 0.35 0.35 0.40 0.39 0.31 0.31 0.30 0.38 0.35 0.34 0.35 0.35 0.36 0.29 0.28 0.29 0.27 0.18 0.25 0.23 0.23 0.28 0.32 0.35 0.38 0.42 0.47 0.52
0.56 0.54 0.52 0.57 0.37 0.63 0.59 0.46 0.17 0.10 0.29 0.20 0.23 0.27 0.27 0.27 0.30 0.32 0.29 0.28 0.24 0.20 0.22 0.29 0.31 0.39 0.41 0.30 0.37 0.33 0.24 0.16 0.15 0.16 0.15 0.26 0.22 0.25 0.36 0.38 0.40 0.41 0.47 0.53 0.57
0.58 0.56 0.58 0.61 0.65 0.59 0.48 0.35 0.11 0.21 0.22 0.28 0.27 0.28 0.24 0.30 0.32 0.32 0.30 0.27 0.35 0.31 0.27 0.23 0.21 0.35 0.42 0.36 0.32 0.32 0.29 0.19 0.12 0.14 0.17 0.26 0.20 0.27 0.41 0.46 0.49 0.52 0.53 0.56 0.60
0.62 0.51 0.49 0.57 0.64 0.58 0.47 0.19 0.19 0.24 0.29 0.27 0.30 0.25 0.26 0.31 0.32 0.32 0.32 0.32 0.37 0.38 0.26 0.25 0.25 0.41 0.43 0.44 0.41 0.33 0.27 0.35 0.25 0.26 0.20 0.21 0.29 0.39 0.43 0.44 0.47 0.49 0.54 0.56 0.60
0.52 0.44 0.47 0.64 0.67 0.54 0.37 0.23 0.28 0.37 0.38 0.34 0.25 0.29 0.25 0.31 0.31 0.34 0.34 0.40 0.37 0.42 0.44 0.34 0.25 0.36 0.40 0.44 0.43 0.37 0.40 0.25 0.26 0.15 0.14 0.19 0.22 0.23 0.34 0.39 0.45 0.48 0.51 0.53 0.57
0.56 0.36 0.60 0.76 0.64 0.45 0.26 0.28 0.35 0.44 0.44 0.36 0.32 0.32 0.34 0.34 0.36 0.33 0.34 0.41 0.45 0.42 0.42 0.34 0.29 0.26 0.33 0.33 0.31 0.34 0.32 0.33 0.31 0.29 0.19 0.18 0.20 0.35 0.36 0.41 0.43 0.48 0.51 0.52 0.54
0.51 0.33 0.68 0.77 0.38 0.38 0.31 0.36 0.43 0.42 0.48 0.42 0.42 0.38 0.35 0.37 0.35 0.34 0.34 0.40 0.51 0.48 0.34 0.35 0.27 0.18 0.22 0.38 0.44 0.40 0.34 0.33 0.23 0.20 0.25 0.24 0.21 0.38 0.43 0.45 0.49 0.49 0.51 0.55 0.57
0.47 0.49 0.68 0.63 0.30 0.32 0.38 0.38 0.42 0.40 0.40 0.39 0.38 0.42 0.43 0.37 0.31 0.38 0.40 0.49 0.49 0.41 0.34 0.35 0.24 0.15 0.18 0.31 0.37 0.31 0.33 0.33 0.33 0.33 0.24 0.23 0.24 0.41 0.44 0.44 0.48 0.48 0.52 0.56 0.57
0.49 0.38 0.48 0.50 0.46 0.37 0.35 0.36 0.35 0.46 0.42 0.44 0.43 0.44 0.38 0.35 0.39 0.34 0.36 0.43 0.47 0.44 0.46 0.42 0.29 0.22 0.16 0.19 0.27 0.24 0.29 0.34 0.34 0.28 0.29 0.28 0.30 0.35 0.39 0.43 0.47 0.50 0.56 0.56 0.56
0.53 0.44 0.47 0.35 0.38 0.41 0.40 0.37 0.35 0.35 0.44 0.45 0.39 0.37 0.34 0.29 0.30 0.29 0.33 0.34 0.37 0.40 0.40 0.37 0.23 0.27 0.28 0.29 0.30 0.29 0.29 0.31 0.31 0.34 0.31 0.31 0.33 0.35 0.41 0.45 0.47 0.53 0.54 0.54 0.56
0.50 0.49 0.52 0.47 0.47 0.42 0.38 0.35 0.34 0.36 0.37 0.35 0.33 0.37 0.34 0.27 0.26 0.22 0.26 0.25 0.23 0.33 0.34 0.39 0.25 0.29 0.26 0.32 0.32 0.28 0.30 0.35 0.37 0.38 0.38 0.38 0.35 0.44 0.47 0.50 0.53 0.54 0.54 0.54 0.57
0.66 0.66 0.53 0.46 0.42 0.39 0.37 0.38 0.37 0.39 0.40 0.40 0.37 0.33 0.29 0.31 0.37 0.37 0.38 0.37 0.37 0.34 0.35 0.36 0.32 0.29 0.22 0.31 0.31 0.23 0.30 0.34 0.37 0.39 0.38 0.32 0.37 0.45 0.46 0.51 0.53 0.54 0.56 0.56 0.56
Wind_Speed
15 15 15 14 13 13 12 12 11 11 10 9 9 7 6 4 5 6 4 4 4 6 6 6 5 5 7 6 4 5 3 2 3 3 2 3 3 3 4 6 5 5 6 6 8
12 12 12 13 13 12 12 12 12 12 11 10 9 7 7 8 8 7 5 4 4 7 8 8 7 7 6 5 3 4 4 4 3 4 6 6 5 6 6 6 7 7 6 6 8
11 10 11 11 12 12 12 13 13 13 13 11 10 9 10 9 8 6 5 6 7 7 8 9 9 7 6 5 4 5 6 8 7 7 7 7 7 6 7 6 5 5 6 6 6
10 10 10 11 12 13 13 14 15 15 13 12 11 11 11 10 9 7 7 8 8 9 10 9 8 7 8 7 8 12 10 8 8 8 8 7 5 5 4 4 3 4 5 6 5
9 10 11 12 13 14 16 17 18 16 15 14 13 13 13 13 10 9 9 10 11 11 11 10 9 8 8 10 11 10 9 8 7 7 6 6 4 3 1 2 2 3 4 5 4
10 12 13 14 16 18 20 20 20 17 16 14 13 14 14 14 11 11 11 10 11 10 9 10 9 10 10 8 8 8 7 6 4 3 3 3 2 1 1 1 3 3 5 5 5
13 13 15 18 21 22 22 21 19 17 15 14 14 15 14 12 11 10 9 9 8 9 9 9 9 8 8 7 5 6 6 4 3 1 2 0 2 1 2 2 2 5 6 6 7
15 17 20 23 23 23 22 21 19 17 15 14 14 13 12 10 9 8 7 8 8 7 9 9 9 9 6 6 4 4 3 1 2 2 1 1 4 4 5 6 6 5 7 8 8
18 21 23 23 22 22 21 19 17 15 13 13 13 12 9 8 7 6 7 7 7 8 8 7 6 6 4 4 2 3 2 1 2 0 3 2 6 7 10 8 9 7 7 9 9
21 22 23 22 21 21 20 18 16 13 13 12 11 10 8 6 5 4 6 6 6 5 5 4 4 4 3 2 2 1 1 3 3 4 5 5 7 9 8 6 6 5 6 8 9
21 21 21 20 20 20 19 17 14 13 12 10 10 10 7 5 5 4 4 4 4 3 3 2 3 2 0 0 1 1 2 4 5 4 7 6 7 7 7 3 3 4 5 6 7
20 20 19 18 19 19 17 15 13 13 12 10 8 7 6 5 4 5 3 2 2 2 1 1 1 1 1 1 1 3 4 5 5 5 6 7 5 5 5 4 4 3 4 4 5
19 19 18 18 18 17 16 14 12 10 9 7 6 5 3 5 5 4 2 1 2 1 1 2 2 2 2 2 4 5 4 5 7 9 5 7 4 5 5 4 4 5 5 6 6
18 18 17 17 15 15 13 11 10 8 5 0 1 2 1 1 3 5 2 1 0 2 2 1 3 3 3 4 6 6 6 9 8 7 6 7 5 6 7 6 7 7 8 9 10
18 17 15 15 15 12 11 9 8 5 3 2 1 1 3 0 3 7 3 2 1 3 4 4 4 5 5 7 7 8 10 9 8 7 6 7 7 8 8 8 10 11 11 12 12
17 16 15 13 11 11 9 7 5 2 3 3 3 2 1 3 3 4 2 1 2 2 3 5 6 6 8 9 8 11 8 7 6 6 7 8 9 8 10 12 12 11 11 12 15
17 15 14 12 11 9 8 6 3 3 5 4 3 2 1 3 3 4 3 3 3 4 6 7 7 8 8 8 8 9 7 7 7 7 8 9 10 9 11 11 11 11 13 16 17
17 15 12 11 10 9 7 4 2 6 6 4 3 3 2 2 2 3 2 3 5 4 4 5 6 6 7 6 7 7 6 5 8 8 10 11 10 9 9 10 11 14 15 17 18
15 14 12 10 9 8 5 3 5 6 5 5 3 2 2 2 1 1 3 3 4 5 3 4 4 5 6 5 6 6 5 6 6 9 10 10 10 12 14 13 15 16 17 18 20
14 12 11 10 9 7 5 5 4 5 4 3 3 2 2 2 0 1 2 3 3 5 4 4 5 5 6 6 6 6 5 8 9 9 11 11 12 13 13 16 17 17 18 19 21
13 10 10 10 9 6 6 6 5 4 4 3 3 2 2 1 1 1 1 2 4 5 6 6 5 7 7 8 7 8 8 7 8 10 11 13 12 15 15 17 17 17 19 22 24
13 10 10 11 8 7 7 7 6 4 2 2 3 2 2 1 1 1 1 3 5 6 6 8 6 8 7 7 8 8 8 9 11 13 14 15 19 15 16 17 20 22 23 26 28
12 11 10 11 9 8 8 7 6 5 3 3 3 2 1 1 1 1 2 3 6 6 7 8 8 9 8 9 10 11 12 13 14 15 17 16 18 17 20 23 25 25 27 29 31
13 11 10 10 9 10 9 7 6 4 4 3 3 3 2 1 2 1 3 5 7 7 9 9 8 9 10 12 13 16 16 16 17 18 20 21 27 27 27 26 26 26 28 32 34
12 12 12 11 10 10 9 8 7 6 4 3 2 2 3 1 2 3 5 7 8 9 9 11 12 13 15 18 18 20 22 21 22 22 20 24 25 28 28 28 26 27 32 35 36
12 12 11 10 11 10 8 8 8 6 5 4 4 4 2 3 4 6 7 8 9 10 12 15 15 16 18 18 18 20 23 21 19 21 23 26 28 29 28 24 27 33 36 37 36
12 12 12 11 11 10 10 10 9 7 4 5 6 4 4 5 6 8 9 10 11 13 14 17 16 18 19 19 21 20 15 15 17 18 20 22 26 26 26 27 33 37 36 35 36
Wind_Direction
252 248 242 234 228 225 219 213 206 197 191 189 184 182 181 177 162 154 148 157 166 171 168 159 147 152 153 154 168 181 176 192 188 190 171 160 140 102 99 111 105 112 112 105 135
245 237 228 221 216 211 204 197 188 183 179 173 170 170 162 147 141 136 125 121 125 155 157 154 145 141 132 134 145 159 155 167 163 131 124 121 116 113 111 110 109 110 107 110 133
231 223 213 207 199 194 188 182 177 171 165 161 157 154 152 146 140 128 118 112 115 137 146 144 140 132 119 124 113 122 128 133 127 127 122 114 110 105 113 111 125 130 122 126 143
214 206 197 190 185 179 175 169 162 155 152 148 143 140 139 139 132 133 115 115 109 113 133 136 136 128 111 107 114 118 115 114 118 120 116 119 116 100 115 117 115 126 140 145 156
200 189 183 177 170 165 159 153 149 145 140 136 131 130 131 121 118 116 116 108 104 105 112 122 122 125 117 116 109 111 119 113 113 120 113 121 123 107 154 172 161 148 162 181 178
171 166 163 161 156 151 147 144 142 137 133 129 128 130 130 115 115 110 116 111 105 104 106 109 119 119 119 117 112 118 117 110 104 124 115 121 121 93 73 64 206 198 213 209 208
150 153 151 148 145 143 142 140 137 133 128 125 125 128 123 118 111 112 110 118 109 109 108 111 113 127 131 117 111 113 116 116 56 162 136 175 220 193 288 282 269 234 236 225 225
143 142 142 142 141 141 140 138 135 131 126 123 123 125 121 113 112 102 105 123 116 114 117 114 112 108 109 122 101 105 100 107 59 49 1 258 236 301 310 276 271 279 245 235 237
138 138 139 139 140 141 140 138 135 130 124 125 124 125 119 111 107 105 109 126 121 116 110 113 106 96 96 124 128 52 113 358 273 6 314 310 274 295 303 281 273 273 252 242 246
137 137 138 139 141 142 141 138 133 129 126 120 120 117 110 112 101 102 121 122 121 127 115 93 102 103 74 86 156 189 242 264 282 305 308 291 289 312 315 274 271 275 263 251 256
139 139 140 140 142 143 142 139 132 120 112 117 119 118 110 106 90 88 121 129 126 108 121 77 98 120 83 355 177 239 269 275 276 268 301 293 299 324 326 320 293 286 278 266 269
142 141 139 141 142 143 142 138 136 131 113 111 112 110 101 89 81 46 94 134 132 147 189 123 120 232 157 329 281 286 278 288 272 288 295 300 295 299 336 325 308 298 294 287 286
145 144 143 141 141 142 142 142 138 135 121 103 106 101 95 73 62 17 30 145 139 150 198 183 242 257 249 305 313 299 294 304 288 298 284 297 278 303 301 308 311 309 298 293 293
151 150 148 147 147 148 148 149 150 148 129 116 109 53 3 171 22 6 2 208 250 190 206 247 273 273 288 291 297 298 297 295 283 279 273 296 260 305 299 293 294 290 288 293 298
159 157 153 161 156 159 160 161 165 171 136 234 288 294 358 93 269 352 326 2 228 256 257 268 272 284 295 290 296 284 297 290 281 266 266 296 279 289 301 297 291 291 293 296 300
167 166 166 164 163 167 173 176 186 198 228 255 267 284 350 3 342 319 328 343 264 292 299 274 279 288 287 288 292 298 292 292 287 275 273 280 291 291 297 300 300 295 299 303 303
171 170 173 175 179 181 186 193 215 223 247 253 247 251 267 317 331 350 356 355 299 288 304 297 292 291 300 298 291 314 298 283 286 289 277 285 290 291 307 307 303 305 305 307 307
174 176 175 179 183 187 191 207 234 243 243 235 221 224 250 295 333 343 328 349 350 330 309 313 297 310 309 301 295 311 305 287 283 289 292 294 287 290 302 309 306 309 307 308 308
175 180 185 189 190 194 201 237 227 223 216 200 197 208 261 289 251 322 356 337 355 353 342 331 307 317 322 311 304 303 318 295 295 293 291 295 292 285 294 310 312 309 309 311 310
179 184 191 197 197 201 215 222 215 206 195 194 194 228 220 294 1 19 343 341 347 4 344 334 316 321 310 309 333 311 296 302 310 302 296 294 293 290 298 302 305 307 308 309 309
184 188 195 197 201 211 209 208 193 191 189 185 187 168 168 162 96 43 359 352 344 340 352 334 318 309 308 317 304 305 305 314 304 301 294 297 295 292 290 296 304 302 302 307 308
193 198 203 200 208 212 197 191 190 190 171 156 148 141 143 126 77 14 323 327 329 327 329 328 314 308 307 307 304 301 298 302 301 295 297 297 298 297 293 298 301 301 302 305 307
199 202 204 202 201 202 198 186 182 191 197 184 172 164 155 155 95 358 345 328 338 335 330 326 324 321 315 308 305 301 295 299 299 298 286 292 297 302 295 299 303 304 304 306 308
200 203 207 204 204 187 183 191 184 185 178 166 168 167 159 83 356 328 329 326 328 330 337 330 320 309 302 301 301 295 292 289 290 292 291 284 291 297 298 301 305 306 305 306 307
201 204 203 204 200 189 191 193 188 195 197 196 197 200 196 239 311 317 313 319 323 323 328 325 312 308 305 301 300 298 291 284 281 283 287 294 294 298 302 304 304 307 308 308 307
198 199 199 193 195 192 205 201 197 201 208 220 196 216 240 259 278 290 303 309 306 318 320 319 312 314 312 311 309 302 298 288 279 284 287 289 293 302 304 303 304 308 309 310 311
201 198 195 204 199 199 208 202 205 200 226 222 202 233 264 263 284 303 304 309 306 309 314 315 314 315 310 311 310 309 298 294 292 291 293 296 304 310 307 306 309 310 311 312 311